Location: ??????
(38.1303°N, 24.0039°E)
Time: 19:41:54
(UTC+00:00)

DELTA 2 R/B (1) - Pass Details

Date: 22 October 2021
Orbit: 790 x 802 km, 39.6° (Epoch: 01 December)

Event Time Altitude Azimuth Distance (km) Brightness Sun altitude
Exits shadow 02:51:17 16° 200° (SSW) 1,939 5.4 -22.0°
Drops below altitude 10° 02:53:30 10° 177° (S) 2,339 6.0 -21.5°
Sets 02:56:44 0° 159° (SSE) 3,265 7.0 -20.9°
